Time,TemperatureF,DewpointF,PressureIn,WindDirection,WindDirectionDegrees,WindSpeedMPH,WindSpeedGustMPH,Humidity,HourlyPrecipIn,Conditions,Clouds,dailyrainin,SolarRadiationWatts/m^2,SoftwareType,DateUTC
2013-06-17 00:07:00,58.8,57.0,29.74,North,360,3.0,4.0,95,0.00,,,0.00,0,weatherlink.com 1.10,2013-06-17 04:07:00,
2013-06-17 00:22:00,58.7,57.0,29.74,North,5,2.0,3.0,95,0.00,,,0.00,0,weatherlink.com 1.10,2013-06-17 04:22:00,
2013-06-17 00:37:00,58.9,58.0,29.73,SSE,148,3.0,5.0,95,0.00,,,0.00,0,weatherlink.com 1.10,2013-06-17 04:37:00,
2013-06-17 00:52:00,58.7,57.0,29.72,SSE,154,1.0,4.0,95,0.00,,,0.00,0,weatherlink.com 1.10,2013-06-17 04:52:00,
2013-06-17 01:07:00,58.6,57.0,29.72,SSE,163,1.0,6.0,95,0.00,,,0.00,0,weatherlink.com 1.10,2013-06-17 05:07:00,
2013-06-17 01:22:00,58.7,57.0,29.72,SSE,150,1.0,2.0,95,0.00,,,0.00,0,weatherlink.com 1.10,2013-06-17 05:22:00,
2013-06-17 01:37:00,58.7,57.0,29.72,SSW,209,0.0,2.0,95,0.00,,,0.00,0,weatherlink.com 1.10,2013-06-17 05:37:00,
2013-06-17 01:52:00,59.1,58.0,29.72,SW,229,2.0,4.0,96,0.00,,,0.00,0,weatherlink.com 1.10,2013-06-17 05:52:00,
2013-06-17 02:07:00,59.5,58.0,29.72,SSW,212,5.0,10.0,96,0.00,,,0.00,0,weatherlink.com 1.10,2013-06-17 06:07:00,
2013-06-17 02:22:00,59.8,59.0,29.71,South,186,6.0,10.0,96,0.00,,,0.00,0,weatherlink.com 1.10,2013-06-17 06:22:00,
2013-06-17 02:37:00,59.6,59.0,29.72,WSW,254,6.0,12.0,96,0.00,,,0.00,0,weatherlink.com 1.10,2013-06-17 06:37:00,
2013-06-17 02:52:00,59.6,59.0,29.72,SSE,159,1.0,9.0,96,0.00,,,0.00,0,weatherlink.com 1.10,2013-06-17 06:52:00,
2013-06-17 03:07:00,59.2,58.0,29.71,South,182,2.0,6.0,96,0.00,,,0.00,0,weatherlink.com 1.10,2013-06-17 07:07:00,
2013-06-17 03:22:00,59.0,58.0,29.71,ESE,117,2.0,5.0,95,0.00,,,0.00,0,weatherlink.com 1.10,2013-06-17 07:22:00,
2013-06-17 03:37:00,59.0,58.0,29.72,SSW,198,4.0,7.0,96,0.00,,,0.00,0,weatherlink.com 1.10,2013-06-17 07:37:00,
2013-06-17 03:52:00,59.2,58.0,29.72,South,170,3.0,6.0,96,0.00,,,0.00,0,weatherlink.com 1.10,2013-06-17 07:52:00,
2013-06-17 04:07:00,59.8,59.0,29.72,South,186,1.0,9.0,96,0.00,,,0.00,0,weatherlink.com 1.10,2013-06-17 08:07:00,
2013-06-17 04:22:00,60.0,59.0,29.73,SSE,151,0.0,5.0,95,0.00,,,0.00,0,weatherlink.com 1.10,2013-06-17 08:22:00,
2013-06-17 04:37:00,60.2,59.0,29.73,SSW,211,1.0,5.0,95,0.00,,,0.00,0,weatherlink.com 1.10,2013-06-17 08:37:00,
2013-06-17 04:52:00,60.4,59.0,29.73,South,182,2.0,7.0,95,0.00,,,0.00,0,weatherlink.com 1.10,2013-06-17 08:52:00,
2013-06-17 05:07:00,60.4,59.0,29.73,West,278,2.0,5.0,95,0.00,,,0.00,0,weatherlink.com 1.10,2013-06-17 09:07:00,
2013-06-17 05:22:00,60.5,59.0,29.73,South,180,3.0,4.0,95,0.00,,,0.00,0,weatherlink.com 1.10,2013-06-17 09:22:00,
2013-06-17 05:37:00,60.6,59.0,29.74,SSW,199,5.0,8.0,95,0.00,,,0.00,7,weatherlink.com 1.10,2013-06-17 09:37:00,
2013-06-17 05:52:00,60.6,59.0,29.75,West,261,3.0,8.0,95,0.00,,,0.00,23,weatherlink.com 1.10,2013-06-17 09:52:00,
2013-06-17 06:07:00,60.6,59.0,29.75,WSW,257,4.0,7.0,94,0.00,,,0.00,39,weatherlink.com 1.10,2013-06-17 10:07:00,
2013-06-17 06:22:00,60.6,59.0,29.75,West,263,2.0,8.0,94,0.00,,,0.00,56,weatherlink.com 1.10,2013-06-17 10:22:00,
2013-06-17 06:37:00,60.8,59.0,29.76,SW,215,7.0,8.0,94,0.00,,,0.00,72,weatherlink.com 1.10,2013-06-17 10:37:00,
2013-06-17 06:52:00,60.9,59.0,29.77,SW,221,3.0,9.0,94,0.00,,,0.00,49,weatherlink.com 1.10,2013-06-17 10:52:00,
2013-06-17 07:07:00,60.8,59.0,29.77,West,271,3.0,9.0,93,0.00,,,0.00,56,weatherlink.com 1.10,2013-06-17 11:07:00,
2013-06-17 07:22:00,60.7,59.0,29.78,WSW,256,3.0,11.0,93,0.00,,,0.00,46,weatherlink.com 1.10,2013-06-17 11:22:00,
2013-06-17 07:37:00,60.8,59.0,29.78,WSW,241,6.0,11.0,92,0.00,,,0.00,81,weatherlink.com 1.10,2013-06-17 11:37:00,
2013-06-17 07:52:00,60.9,59.0,29.79,WSW,254,4.0,10.0,92,0.00,,,0.00,93,weatherlink.com 1.10,2013-06-17 11:52:00,
2013-06-17 08:07:00,60.9,58.0,29.78,West,270,2.0,8.0,91,0.00,,,0.00,211,weatherlink.com 1.10,2013-06-17 12:07:00,
2013-06-17 08:22:00,61.6,59.0,29.79,West,271,3.0,8.0,90,0.00,,,0.00,135,weatherlink.com 1.10,2013-06-17 12:22:00,
2013-06-17 08:37:00,61.3,58.0,29.80,NW,326,4.0,9.0,88,0.00,,,0.00,165,weatherlink.com 1.10,2013-06-17 12:37:00,
2013-06-17 08:52:00,61.2,57.0,29.80,WNW,300,2.0,7.0,87,0.00,,,0.00,97,weatherlink.com 1.10,2013-06-17 12:52:00,
2013-06-17 09:07:00,61.1,57.0,29.80,West,274,2.0,7.0,87,0.00,,,0.00,128,weatherlink.com 1.10,2013-06-17 13:07:00,
2013-06-17 09:22:00,60.8,57.0,29.80,West,275,3.0,6.0,87,0.00,,,0.00,77,weatherlink.com 1.10,2013-06-17 13:22:00,
2013-06-17 09:37:00,61.3,58.0,29.80,West,260,2.0,6.0,88,0.00,,,0.00,195,weatherlink.com 1.10,2013-06-17 13:37:00,
2013-06-17 09:53:00,62.2,58.0,29.79,WSW,256,5.0,6.0,85,0.00,,,0.00,285,weatherlink.com 1.10,2013-06-17 13:53:00,
2013-06-17 10:08:00,62.9,58.0,29.79,West,265,4.0,9.0,84,0.00,,,0.00,552,weatherlink.com 1.10,2013-06-17 14:08:00,
2013-06-17 10:23:00,63.3,58.0,29.79,West,265,5.0,8.0,84,0.00,,,0.00,232,weatherlink.com 1.10,2013-06-17 14:23:00,
2013-06-17 10:38:00,64.3,59.0,29.79,WSW,257,6.0,9.0,83,0.00,,,0.00,374,weatherlink.com 1.10,2013-06-17 14:38:00,
2013-06-17 10:53:00,64.7,59.0,29.79,WSW,257,7.0,8.0,82,0.00,,,0.00,332,weatherlink.com 1.10,2013-06-17 14:53:00,
2013-06-17 11:08:00,64.5,59.0,29.79,South,182,4.0,8.0,82,0.00,,,0.00,526,weatherlink.com 1.10,2013-06-17 15:08:00,
2013-06-17 11:23:00,64.7,59.0,29.80,WSW,252,6.0,11.0,82,0.00,,,0.00,107,weatherlink.com 1.10,2013-06-17 15:23:00,
2013-06-17 11:38:00,64.5,59.0,29.80,WNW,290,2.0,8.0,83,0.00,,,0.00,320,weatherlink.com 1.10,2013-06-17 15:38:00,
2013-06-17 11:53:00,66.5,60.0,29.80,NW,315,5.0,9.0,80,0.00,,,0.00,682,weatherlink.com 1.10,2013-06-17 15:53:00,
2013-06-17 12:08:00,66.6,59.0,29.80,West,274,9.0,12.0,77,0.00,,,0.00,241,weatherlink.com 1.10,2013-06-17 16:08:00,
2013-06-17 12:23:00,65.7,59.0,29.80,West,278,6.0,9.0,79,0.00,,,0.00,149,weatherlink.com 1.10,2013-06-17 16:23:00,
2013-06-17 12:38:00,64.9,59.0,29.81,West,275,4.0,7.0,80,0.00,,,0.00,156,weatherlink.com 1.10,2013-06-17 16:38:00,
2013-06-17 12:53:00,65.0,59.0,29.81,WSW,247,3.0,6.0,82,0.00,,,0.00,490,weatherlink.com 1.10,2013-06-17 16:53:00,
2013-06-17 13:08:00,66.7,60.0,29.80,WNW,284,2.0,7.0,79,0.00,,,0.00,550,weatherlink.com 1.10,2013-06-17 17:08:00,
2013-06-17 13:23:00,67.6,60.0,29.80,NNW,328,5.0,9.0,76,0.00,,,0.00,301,weatherlink.com 1.10,2013-06-17 17:23:00,
2013-06-17 13:38:00,66.2,60.0,29.81,WNW,291,5.0,10.0,79,0.00,,,0.00,202,weatherlink.com 1.10,2013-06-17 17:38:00,
2013-06-17 13:53:00,66.5,59.0,29.82,West,267,5.0,10.0,78,0.00,,,0.00,292,weatherlink.com 1.10,2013-06-17 17:53:00,
2013-06-17 14:08:00,67.1,59.0,29.81,WSW,249,3.0,10.0,75,0.00,,,0.00,366,weatherlink.com 1.10,2013-06-17 18:08:00,
2013-06-17 14:23:00,67.6,59.0,29.81,West,265,4.0,11.0,75,0.00,,,0.00,443,weatherlink.com 1.10,2013-06-17 18:23:00,
2013-06-17 14:38:00,67.6,59.0,29.81,West,279,4.0,11.0,73,0.00,,,0.00,241,weatherlink.com 1.10,2013-06-17 18:38:00,
2013-06-17 14:53:00,67.7,58.0,29.81,WSW,243,6.0,13.0,72,0.00,,,0.00,1060,weatherlink.com 1.10,2013-06-17 18:53:00,
2013-06-17 15:08:00,68.2,58.0,29.82,NW,324,10.0,13.0,70,0.00,,,0.00,415,weatherlink.com 1.10,2013-06-17 19:08:00,
2013-06-17 15:23:00,68.2,59.0,29.82,WNW,298,4.0,12.0,72,0.00,,,0.00,503,weatherlink.com 1.10,2013-06-17 19:23:00,
2013-06-17 15:38:00,68.5,58.0,29.82,NW,309,5.0,14.0,70,0.00,,,0.00,513,weatherlink.com 1.10,2013-06-17 19:38:00,
2013-06-17 15:53:00,67.5,59.0,29.82,NW,324,4.0,13.0,73,0.00,,,0.00,279,weatherlink.com 1.10,2013-06-17 19:53:00,
2013-06-17 16:08:00,67.2,59.0,29.82,NNW,329,8.0,14.0,74,0.00,,,0.00,230,weatherlink.com 1.10,2013-06-17 20:08:00,
2013-06-17 16:23:00,67.1,59.0,29.82,North,349,8.0,12.0,74,0.00,,,0.00,269,weatherlink.com 1.10,2013-06-17 20:23:00,
2013-06-17 16:38:00,66.8,58.0,29.82,NNW,333,8.0,11.0,74,0.00,,,0.00,784,weatherlink.com 1.10,2013-06-17 20:38:00,
2013-06-17 16:53:00,66.7,57.0,29.83,NW,317,5.0,13.0,71,0.00,,,0.00,726,weatherlink.com 1.10,2013-06-17 20:53:00,
2013-06-17 17:08:00,65.3,55.0,29.83,NW,306,4.0,12.0,70,0.00,,,0.00,301,weatherlink.com 1.10,2013-06-17 21:08:00,
2013-06-17 17:23:00,66.5,56.0,29.83,NW,309,11.0,13.0,68,0.00,,,0.00,585,weatherlink.com 1.10,2013-06-17 21:23:00,
2013-06-17 17:38:00,64.4,54.0,29.84,NNW,329,5.0,13.0,70,0.00,,,0.00,151,weatherlink.com 1.10,2013-06-17 21:38:00,
2013-06-17 17:53:00,64.6,54.0,29.85,WNW,290,5.0,11.0,69,0.00,,,0.00,555,weatherlink.com 1.10,2013-06-17 21:53:00,
2013-06-17 18:08:00,64.2,53.0,29.85,NNW,347,5.0,12.0,68,0.00,,,0.00,178,weatherlink.com 1.10,2013-06-17 22:08:00,
2013-06-17 18:23:00,64.7,53.0,29.86,NNW,331,8.0,11.0,67,0.00,,,0.00,475,weatherlink.com 1.10,2013-06-17 22:23:00,
2013-06-17 18:38:00,63.0,52.0,29.87,WNW,302,3.0,11.0,67,0.00,,,0.00,118,weatherlink.com 1.10,2013-06-17 22:38:00,
2013-06-17 18:53:00,62.7,52.0,29.88,WNW,302,2.0,9.0,68,0.00,,,0.00,81,weatherlink.com 1.10,2013-06-17 22:53:00,
2013-06-17 19:08:00,62.6,52.0,29.88,WNW,301,2.0,11.0,68,0.00,,,0.00,95,weatherlink.com 1.10,2013-06-17 23:08:00,
2013-06-17 19:23:00,64.0,52.0,29.89,NE,37,2.0,8.0,65,0.00,,,0.00,216,weatherlink.com 1.10,2013-06-17 23:23:00,
2013-06-17 19:38:00,62.8,51.0,29.89,NNW,344,5.0,11.0,65,0.00,,,0.00,158,weatherlink.com 1.10,2013-06-17 23:38:00,
2013-06-17 19:53:00,62.7,51.0,29.89,NNW,346,4.0,8.0,66,0.00,,,0.00,44,weatherlink.com 1.10,2013-06-17 23:53:00,
2013-06-17 20:08:00,61.2,51.0,29.89,NNW,331,6.0,10.0,70,0.00,,,0.00,56,weatherlink.com 1.10,2013-06-18 00:08:00,
2013-06-17 20:23:00,60.2,51.0,29.89,NNE,30,4.0,10.0,71,0.00,,,0.00,19,weatherlink.com 1.10,2013-06-18 00:23:00,
2013-06-17 20:38:00,59.6,50.0,29.89,NNW,333,2.0,7.0,71,0.00,,,0.00,9,weatherlink.com 1.10,2013-06-18 00:38:00,
2013-06-17 20:53:00,58.9,50.0,29.89,NNW,334,3.0,4.0,72,0.00,,,0.00,0,weatherlink.com 1.10,2013-06-18 00:53:00,
2013-06-17 21:09:00,59.0,50.0,29.90,NNW,333,3.0,5.0,72,0.00,,,0.00,0,weatherlink.com 1.10,2013-06-18 01:09:00,
2013-06-17 21:24:00,58.5,50.0,29.91,NNW,338,2.0,4.0,73,0.00,,,0.00,0,weatherlink.com 1.10,2013-06-18 01:24:00,
2013-06-17 21:39:00,57.6,50.0,29.91,North,9,1.0,3.0,76,0.00,,,0.00,0,weatherlink.com 1.10,2013-06-18 01:39:00,
2013-06-17 21:54:00,56.8,50.0,29.91,NE,51,1.0,2.0,78,0.00,,,0.00,0,weatherlink.com 1.10,2013-06-18 01:54:00,
2013-06-17 22:09:00,56.3,50.0,29.91,SE,132,1.0,2.0,79,0.00,,,0.00,0,weatherlink.com 1.10,2013-06-18 02:09:00,
2013-06-17 22:24:00,55.2,50.0,29.91,North,5,0.0,2.0,83,0.00,,,0.00,0,weatherlink.com 1.10,2013-06-18 02:24:00,
2013-06-17 22:39:00,55.9,51.0,29.91,NE,45,0.0,2.0,82,0.00,,,0.00,0,weatherlink.com 1.10,2013-06-18 02:39:00,
2013-06-17 22:54:00,55.4,51.0,29.91,SSE,163,1.0,2.0,85,0.00,,,0.00,0,weatherlink.com 1.10,2013-06-18 02:54:00,
2013-06-17 23:09:00,54.2,51.0,29.92,SE,135,1.0,3.0,87,0.00,,,0.00,0,weatherlink.com 1.10,2013-06-18 03:09:00,
2013-06-17 23:24:00,54.0,50.0,29.92,SSE,157,1.0,2.0,86,0.00,,,0.00,0,weatherlink.com 1.10,2013-06-18 03:24:00,
2013-06-17 23:39:00,54.0,50.0,29.92,SSE,148,2.0,2.0,86,0.00,,,0.00,0,weatherlink.com 1.10,2013-06-18 03:39:00,
2013-06-17 23:54:00,53.4,50.0,29.93,SW,218,1.0,3.0,88,0.00,,,0.00,0,weatherlink.com 1.10,2013-06-18 03:54:00,